Hourly Weather Acquaviva delle Fonti

Today, 29 July, Thursday

Time Temperature Precipitation Wind Pressure Humidity
00:00 +31°C° 0 mm 2 mps 735 mmHg 29%
01:00 +31°C° 0 mm 1 mps 735 mmHg 29%
02:00 +30°C° 0 mm 1 mps 735 mmHg 28%
03:00 +30°C° 0 mm 1 mps 735 mmHg 28%
04:00 +30°C° 0 mm 1 mps 734 mmHg 27%
05:00 +31°C° 0 mm 1 mps 735 mmHg 25%
06:00 +33°C° 0 mm 1 mps 735 mmHg 22%
07:00 +34°C° 0 mm 1 mps 735 mmHg 20%
08:00 +36°C° 0 mm 1 mps 735 mmHg 17%
09:00 +39°C° 0 mm 2 mps 735 mmHg 15%
10:00 +41°C° 0 mm 2 mps 735 mmHg 12%
11:00 +41°C° 0 mm 2 mps 735 mmHg 12%
12:00 +43°C° 0 mm 3 mps 735 mmHg 12%
13:00 +44°C° 0 mm 4 mps 734 mmHg 11%
14:00 +43°C° 0 mm 4 mps 734 mmHg 12%
15:00 +43°C° 0 mm 4 mps 734 mmHg 13%
16:00 +43°C° 0 mm 4 mps 734 mmHg 13%
17:00 +41°C° 0 mm 4 mps 734 mmHg 17%
18:00 +38°C° 0 mm 3 mps 734 mmHg 20%
19:00 +36°C° 0 mm 3 mps 734 mmHg 23%
20:00 +35°C° 0 mm 2 mps 734 mmHg 25%
21:00 +34°C° 0 mm 2 mps 734 mmHg 27%
22:00 +32°C° 0 mm 1 mps 734 mmHg 29%
23:00 +31°C° 0 mm 2 mps 734 mmHg 27%

Tomorrow, 30 July, Friday

Time Temperature Precipitation Wind Pressure Humidity
00:00 +31°C° 0 mm 2 mps 733 mmHg 26%
01:00 +31°C° 0 mm 2 mps 733 mmHg 24%
02:00 +30°C° 0 mm 2 mps 733 mmHg 24%
03:00 +30°C° 0 mm 2 mps 733 mmHg 24%
04:00 +29°C° 0 mm 2 mps 733 mmHg 24%
05:00 +30°C° 0 mm 2 mps 733 mmHg 23%
06:00 +31°C° 0 mm 2 mps 733 mmHg 22%
07:00 +34°C° 0 mm 2 mps 734 mmHg 21%
08:00 +35°C° 0 mm 2 mps 734 mmHg 19%
09:00 +37°C° 0 mm 2 mps 734 mmHg 17%
10:00 +38°C° 0 mm 3 mps 734 mmHg 15%
11:00 +39°C° 0 mm 3 mps 734 mmHg 15%
12:00 +40°C° 0 mm 4 mps 733 mmHg 16%
13:00 +41°C° 0 mm 4 mps 733 mmHg 16%
14:00 +40°C° 0 mm 4 mps 733 mmHg 18%
15:00 +38°C° 0 mm 4 mps 733 mmHg 21%
16:00 +37°C° 0 mm 4 mps 733 mmHg 23%
17:00 +36°C° 0 mm 3 mps 733 mmHg 25%
18:00 +35°C° 0 mm 3 mps 733 mmHg 28%
19:00 +32°C° 0 mm 2 mps 733 mmHg 30%
20:00 +31°C° 0 mm 2 mps 733 mmHg 31%
21:00 +31°C° 0 mm 1 mps 733 mmHg 31%
22:00 +30°C° 0 mm 1 mps 733 mmHg 32%
23:00 +30°C° 0 mm 1 mps 733 mmHg 32%

Day after tomorrow, 31 July, Saturday

Time Temperature Precipitation Wind Pressure Humidity
00:00 +29°C° 0 mm 1 mps 732 mmHg 31%
01:00 +29°C° 0 mm 1 mps 732 mmHg 31%
02:00 +29°C° 0 mm 1 mps 732 mmHg 31%
03:00 +28°C° 0 mm 1 mps 732 mmHg 31%
04:00 +28°C° 0 mm 1 mps 732 mmHg 31%
05:00 +30°C° 0 mm 1 mps 732 mmHg 29%
06:00 +31°C° 0 mm 1 mps 732 mmHg 26%
07:00 +33°C° 0 mm 1 mps 732 mmHg 23%
08:00 +35°C° 0 mm 1 mps 732 mmHg 20%
09:00 +38°C° 0 mm 2 mps 732 mmHg 17%
10:00 +40°C° 0 mm 3 mps 732 mmHg 14%
11:00 +40°C° 0 mm 3 mps 732 mmHg 14%
12:00 +42°C° 0 mm 4 mps 731 mmHg 13%
13:00 +43°C° 0 mm 4 mps 731 mmHg 12%
14:00 +42°C° 0 mm 4 mps 731 mmHg 13%
15:00 +42°C° 0 mm 4 mps 731 mmHg 14%
16:00 +42°C° 0 mm 4 mps 731 mmHg 15%
17:00 +40°C° 0 mm 4 mps 731 mmHg 18%
18:00 +37°C° 0 mm 4 mps 731 mmHg 21%
19:00 +35°C° 0 mm 3 mps 731 mmHg 24%
20:00 +34°C° 0 mm 3 mps 731 mmHg 26%
21:00 +33°C° 0 mm 3 mps 731 mmHg 27%
22:00 +31°C° 0 mm 3 mps 732 mmHg 28%
23:00 +31°C° 0 mm 2 mps 731 mmHg 28%

1 August, Sunday

Time Temperature Precipitation Wind Pressure Humidity
00:00 +31°C° 0 mm 2 mps 731 mmHg 28%
01:00 +30°C° 0 mm 1 mps 731 mmHg 27%
02:00 +30°C° 0 mm 2 mps 731 mmHg 26%
03:00 +30°C° 0 mm 2 mps 731 mmHg 25%
04:00 +30°C° 0 mm 2 mps 731 mmHg 24%
05:00 +32°C° 0 mm 2 mps 731 mmHg 22%
06:00 +34°C° 0 mm 2 mps 731 mmHg 20%
07:00 +36°C° 0 mm 2 mps 731 mmHg 17%
08:00 +38°C° 0 mm 3 mps 731 mmHg 15%
09:00 +40°C° 0 mm 3 mps 731 mmHg 14%
10:00 +43°C° 0 mm 4 mps 731 mmHg 12%
11:00 +44°C° 0 mm 4 mps 731 mmHg 12%
12:00 +45°C° 0 mm 5 mps 731 mmHg 12%
13:00 +46°C° 0 mm 5 mps 731 mmHg 12%
14:00 +45°C° 0 mm 5 mps 731 mmHg 12%
15:00 +45°C° 0 mm 5 mps 731 mmHg 13%
16:00 +43°C° 0 mm 5 mps 731 mmHg 14%
17:00 +41°C° 0 mm 5 mps 731 mmHg 17%
18:00 +40°C° 0 mm 4 mps 731 mmHg 19%
19:00 +37°C° 0 mm 4 mps 731 mmHg 21%
20:00 +36°C° 0 mm 4 mps 731 mmHg 23%
21:00 +35°C° 0 mm 4 mps 731 mmHg 24%
22:00 +34°C° 0 mm 4 mps 732 mmHg 25%
23:00 +33°C° 0 mm 4 mps 732 mmHg 27%

2 August, Monday

Time Temperature Precipitation Wind Pressure Humidity
00:00 +32°C° 0 mm 4 mps 732 mmHg 29%
01:00 +30°C° 0 mm 4 mps 732 mmHg 31%
02:00 +29°C° 0 mm 4 mps 732 mmHg 33%
03:00 +28°C° 0 mm 4 mps 732 mmHg 34%
04:00 +28°C° 0 mm 4 mps 733 mmHg 35%
05:00 +29°C° 0 mm 4 mps 733 mmHg 34%
06:00 +30°C° 0 mm 4 mps 733 mmHg 33%
07:00 +32°C° 0 mm 4 mps 734 mmHg 32%
08:00 +33°C° 0 mm 4 mps 734 mmHg 28%
09:00 +34°C° 0 mm 4 mps 734 mmHg 25%
10:00 +36°C° 0 mm 4 mps 734 mmHg 21%
11:00 +36°C° 0 mm 5 mps 734 mmHg 20%
12:00 +36°C° 0 mm 5 mps 734 mmHg 20%
13:00 +38°C° 0 mm 6 mps 734 mmHg 20%
14:00 +36°C° 0 mm 5 mps 734 mmHg 22%
15:00 +35°C° 0 mm 5 mps 734 mmHg 24%
16:00 +35°C° 0 mm 4 mps 734 mmHg 26%
17:00 +33°C° 0 mm 3 mps 734 mmHg 29%
18:00 +31°C° 0 mm 2 mps 734 mmHg 33%
19:00 +29°C° 0 mm 2 mps 734 mmHg 37%
20:00 +28°C° 0 mm 1 mps 734 mmHg 38%
21:00 +28°C° 0 mm 1 mps 735 mmHg 40%
22:00 +27°C° 0 mm 1 mps 735 mmHg 42%
23:00 +26°C° 0 mm 1 mps 735 mmHg 45%

3 August, Tuesday

Time Temperature Precipitation Wind Pressure Humidity
00:00 +26°C° 0 mm 1 mps 734 mmHg 48%
01:00 +26°C° 0 mm 1 mps 734 mmHg 51%
02:00 +25°C° 0 mm 2 mps 734 mmHg 52%
03:00 +25°C° 0 mm 2 mps 734 mmHg 53%
04:00 +25°C° 0 mm 2 mps 734 mmHg 55%
05:00 +26°C° 0 mm 2 mps 734 mmHg 50%
06:00 +27°C° 0 mm 1 mps 735 mmHg 45%
07:00 +29°C° 0 mm 1 mps 735 mmHg 40%
08:00 +31°C° 0 mm 2 mps 735 mmHg 33%
09:00 +34°C° 0 mm 3 mps 734 mmHg 27%
10:00 +37°C° 0 mm 3 mps 734 mmHg 20%
11:00 +37°C° 0 mm 4 mps 734 mmHg 19%
12:00 +38°C° 0 mm 4 mps 734 mmHg 19%
13:00 +40°C° 0 mm 5 mps 733 mmHg 18%
14:00 +39°C° 0 mm 5 mps 733 mmHg 18%
15:00 +39°C° 0 mm 6 mps 732 mmHg 19%
16:00 +38°C° 0 mm 6 mps 732 mmHg 19%
17:00 +35°C° 0 mm 5 mps 731 mmHg 26%
18:00 +33°C° 0 mm 5 mps 731 mmHg 34%
19:00 +30°C° 0 mm 4 mps 730 mmHg 41%
20:00 +29°C° 0 mm 4 mps 731 mmHg 43%
21:00 +29°C° 0 mm 3 mps 731 mmHg 45%
22:00 +28°C° 0 mm 3 mps 731 mmHg 47%
23:00 +28°C° 0 mm 3 mps 731 mmHg 44%
Show more

We Need Your Consent

Meteoprog and our Service Providers may store and access personal data such as cookies, device identifiers or other similar technologies on your device and process such data to personalise content and ads, as well as provide social media features and to analyse the traffic.

  • Store and/or access information on your device

    Cookies, device identifiers or other information can be stored or accessed on your device for the purposes indicated above.

  • Personalised ads and content, ad and content measurement, audience insights, and products development

    Ads and content can be personalised based on a profile. More data can be added to better personalise ads and content. Ad and content performance can be measured. Insights about the audience who saw the ads and content can be derived. Such data can be used to develop or improve user’s experience, systems and software.

By clicking ‘I Agree’ you will allow the use of indicated cookies, device identifiers, web beacons or other similar technologies. Your settings can be changed in the browser on your device.

For certain purposes, legitimate interests may be relied on, rather than consent. You can read more about this in our Privacy and Cookie Policy.